Location: La Sioule Rivi�re
(46.3664°N, 3.3197°E)
Time: 12:29:07
(UTC+00:00)

YAOGAN 1 - Pass Details

Date: 29 October 2020
Orbit: 618 x 620 km, 97.9° (Epoch: 23 November)

Event Time Altitude Azimuth Distance (km) Brightness Sun altitude
Rises 17:15:38 0° 127° (SE) 2,889 5.6 -7.4°
Reaches altitude 10° 17:18:14 10° 111° (ESE) 1,988 4.7 -7.9°
Maximum altitude 17:21:26 21° 64° (ENE) 1,421 3.8 -8.4°
Drops below altitude 10° 17:24:39 10° 16° (NNE) 1,998 4.9 -8.9°
Sets 17:27:16 0° 360° (N) 2,909 5.9 -9.4°
